User: anonymous   Login
Location: Macksville High School
(37.9611°N, 99.9654°W)
Time: 07:17:39
(UTC+00:00)
Language:

PSLV R/B - Orbit

View from above orbital plane
View from above orbital plane
View from above satellite
View from above satellite

Ground track
Ground track

The orbit data is extracted from the following two-line orbital elements,

1 26960U 01049D   20156.88020252 +.00000396 +00000-0 +29054-4 0  9990
2 26960 097.8103 149.8985 0056082 083.7635 276.9977 15.08223674017340
Epoch (UTC): 04 June 2020 21:07:29
Eccentricity: 0.0056082
inclination: 97.8103°
perigee height: 503 km
apogee height: 580 km
right ascension of ascending node: 149.8985°
argument of perigee: 83.7635°
revolutions per day: 15.08223674
mean anomaly at epoch: 276.9977°
orbit number at epoch: 1734

The dashed part of the orbit path shows where the satellite is in the earth's shadow,  

DLR